| time (UTC) | temp F | wind direction | speed MPH | gust MPH | rain 1hr in | rain 24hr in | rain mn in | humidity % | barometer mb |
| 20260508213749 | 70 | 202 | 2.0 | 5.0 | 0.00 | 0.01 | 0.01 | 40 | 1011.3 |
| 20260508212249 | 69 | 263 | 1.0 | 7.0 | 0.00 | 0.01 | 0.01 | 37 | 1011.1 |
| 20260508210749 | 69 | 281 | 4.0 | 8.0 | 0.00 | 0.01 | 0.01 | 38 | 1011.2 |
| 20260508205249 | 70 | 279 | 6.0 | 6.0 | 0.00 | 0.01 | 0.01 | 36 | 1011.3 |
| 20260508203749 | 69 | 330 | 8.0 | 8.0 | 0.00 | 0.01 | 0.01 | 35 | 1011.4 |
| 20260508202249 | 69 | 306 | 4.0 | 9.0 | 0.00 | 0.01 | 0.01 | 37 | 1011.6 |
| 20260508200749 | 69 | 228 | 2.0 | 5.0 | 0.00 | 0.01 | 0.01 | 35 | 1012.0 |
| 20260508195249 | 68 | 259 | 3.0 | 6.0 | 0.00 | 0.01 | 0.01 | 36 | 1012.6 |
| 20260508193749 | 69 | 198 | 7.0 | 11.0 | 0.00 | 0.01 | 0.01 | 36 | 1013.1 |
| 20260508192249 | 70 | 213 | 4.0 | 7.0 | 0.00 | 0.01 | 0.01 | 34 | 1013.2 |
| 20260508190749 | 69 | 360 | 1.0 | 4.0 | 0.00 | 0.01 | 0.01 | 30 | 1013.1 |
| 20260508185249 | 68 | 228 | 1.0 | 2.0 | 0.00 | 0.01 | 0.01 | 29 | 1013.5 |
| 20260508183749 | 67 | 178 | 3.0 | 3.0 | 0.00 | 0.01 | 0.01 | 35 | 1013.7 |
| 20260508182249 | 67 | 149 | 5.0 | 7.0 | 0.00 | 0.01 | 0.01 | 32 | 1013.9 |
| 20260508180749 | 67 | 124 | 2.0 | 5.0 | 0.00 | 0.01 | 0.01 | 34 | 1014.0 |
| 20260508175249 | 66 | 307 | 3.0 | 4.0 | 0.00 | 0.01 | 0.01 | 38 | 1014.2 |
| 20260508173749 | 66 | 114 | 1.0 | 4.0 | 0.00 | 0.01 | 0.01 | 39 | 1014.4 |
| 20260508172249 | 65 | 55 | 4.0 | 5.0 | 0.00 | 0.01 | 0.01 | 38 | 1014.8 |
| 20260508170749 | 64 | 320 | 3.0 | 5.0 | 0.00 | 0.01 | 0.01 | 48 | 1015.2 |
| 20260508165249 | 63 | 240 | 4.0 | 4.0 | 0.00 | 0.01 | 0.01 | 45 | 1015.5 |
| 20260508163749 | 64 | 95 | 6.0 | 9.0 | 0.00 | 0.01 | 0.01 | 50 | 1015.8 |
| 20260508162249 | 63 | 65 | 4.0 | 6.0 | 0.00 | 0.01 | 0.01 | 52 | 1016.0 |
| 20260508160749 | 61 | 194 | 1.0 | 3.0 | 0.00 | 0.01 | 0.01 | 49 | 1016.2 |
| 20260508155249 | 60 | 187 | 2.0 | 4.0 | 0.00 | 0.01 | 0.01 | 48 | 1016.6 |
| 20260508153749 | 59 | 294 | 4.0 | 5.0 | 0.00 | 0.01 | 0.01 | 54 | 1016.7 |
| 20260508152249 | 58 | 109 | 2.0 | 3.0 | 0.00 | 0.02 | 0.01 | 57 | 1017.0 |
| 20260508150749 | 56 | 168 | 2.0 | 4.0 | 0.00 | 0.03 | 0.01 | 57 | 1017.0 |
| 20260508145249 | 52 | 186 | 1.0 | 2.0 | 0.00 | 0.04 | 0.01 | 6 | 1017.1 |
| 20260508143749 | 51 | 203 | 2.0 | 2.0 | 0.00 | 0.04 | 0.01 | 1 | 1017.2 |
| 20260508142249 | 50 | 219 | 1.0 | 3.0 | 0.00 | 0.04 | 0.01 | 1 | 1017.3 |
| 20260508140749 | 49 | 126 | 2.0 | 2.0 | 0.00 | 0.05 | 0.01 | 1 | 1017.3 |
| 20260508135249 | 47 | 126 | 2.0 | 3.0 | 0.00 | 0.05 | 0.01 | 2 | 1017.4 |
| 20260508133749 | 46 | 0 | 0.0 | 2.0 | 0.00 | 0.05 | 0.01 | 2 | 1017.4 |
| 20260508132249 | 45 | 106 | 4.0 | 4.0 | 0.00 | 0.05 | 0.01 | 4 | 1017.3 |
| 20260508130749 | 44 | 47 | 2.0 | 3.0 | 0.00 | 0.05 | 0.01 | 5 | 1017.1 |
| 20260508125249 | 43 | 80 | 1.0 | 2.0 | 0.00 | 0.05 | 0.01 | 6 | 1017.2 |
| 20260508123749 | 42 | 80 | 2.0 | 2.0 | 0.00 | 0.05 | 0.01 | 7 | 1017.2 |
| 20260508122249 | 42 | 5 | 2.0 | 3.0 | 0.00 | 0.05 | 0.01 | 7 | 1017.1 |
| 20260508120749 | 40 | 113 | 2.0 | 4.0 | 0.00 | 0.05 | 0.01 | 8 | 1016.8 |
| 20260508115249 | 39 | 0 | 0.0 | 2.0 | 0.01 | 0.05 | 0.01 | 9 | 1016.7 |
| 20260508113749 | 38 | 199 | 1.0 | 1.0 | 0.01 | 0.05 | 0.01 | 11 | 1016.4 |
| 20260508112249 | 38 | 0 | 0.0 | 0.0 | 0.01 | 0.05 | 0.01 | 12 | 1016.2 |
| 20260508110749 | 37 | 0 | 0.0 | 0.0 | 0.01 | 0.05 | 0.01 | 14 | 1016.0 |
| 20260508105249 | 37 | 0 | 0.0 | 0.0 | 0.00 | 0.04 | 0.00 | 16 | 1015.8 |
| 20260508103749 | 38 | 0 | 0.0 | 0.0 | 0.00 | 0.04 | 0.00 | 15 | 1015.6 |
| 20260508102324 | 38 | 0 | 0.0 | 0.0 | 0.00 | 0.04 | 0.00 | 13 | 1015.5 |
| 20260508102249 | 38 | 0 | 0.0 | 0.0 | 0.00 | 0.04 | 0.00 | 13 | 1015.5 |
| 20260508100749 | 38 | 0 | 0.0 | 0.0 | 0.00 | 0.04 | 0.00 | 13 | 1015.2 |
| 20260508095249 | 38 | 0 | 0.0 | 0.0 | 0.00 | 0.05 | 0.00 | 13 | 1015.1 |
| 20260508093749 | 38 | 0 | 0.0 | 0.0 | 0.00 | 0.05 | 0.00 | 15 | 1015.0 |
| 20260508092249 | 38 | 0 | 0.0 | 0.0 | 0.00 | 0.05 | 0.00 | 16 | 1014.9 |
| 20260508090749 | 39 | 0 | 0.0 | 0.0 | 0.00 | 0.05 | 0.00 | 16 | 1014.9 |
| 20260508085249 | 39 | 0 | 0.0 | 0.0 | 0.00 | 0.05 | 0.00 | 15 | 1014.8 |
| 20260508083749 | 40 | 0 | 0.0 | 0.0 | 0.00 | 0.06 | 0.00 | 12 | 1014.6 |
| 20260508082249 | 40 | 0 | 0.0 | 0.0 | 0.00 | 0.06 | 0.00 | 14 | 1014.7 |
| 20260508080749 | 40 | 0 | 0.0 | 0.0 | 0.00 | 0.07 | 0.00 | 16 | 1014.7 |
| 20260508075249 | 41 | 0 | 0.0 | 0.0 | 0.00 | 0.07 | 0.00 | 13 | 1014.7 |
| 20260508073749 | 41 | 226 | 1.0 | 1.0 | 0.00 | 0.07 | 0.00 | 13 | 1014.6 |
| 20260508072320 | 42 | 0 | 0.0 | 0.0 | 0.00 | 0.07 | 0.00 | 14 | 1014.6 |
| 20260508072249 | 42 | 0 | 0.0 | 0.0 | 0.00 | 0.07 | 0.00 | 14 | 1014.6 |
| 20260508070749 | 43 | 0 | 0.0 | 0.0 | 0.00 | 0.07 | 0.00 | 12 | 1014.5 |
| 20260508065249 | 43 | 0 | 0.0 | 0.0 | 0.00 | 0.07 | 0.00 | 10 | 1014.5 |
| 20260508063749 | 44 | 0 | 0.0 | 0.0 | 0.00 | 0.07 | 0.00 | 10 | 1014.6 |
| 20260508062249 | 43 | 205 | 1.0 | 2.0 | 0.00 | 0.07 | 0.00 | 8 | 1014.6 |
| 20260508060749 | 43 | 0 | 0.0 | 0.0 | 0.00 | 0.07 | 0.00 | 11 | 1014.7 |
| 20260508055249 | 43 | 0 | 0.0 | 1.0 | 0.00 | 0.08 | 0.00 | 10 | 1014.7 |
| 20260508053749 | 42 | 150 | 1.0 | 3.0 | 0.00 | 0.08 | 0.00 | 14 | 1014.7 |
| 20260508052249 | 42 | 0 | 0.0 | 1.0 | 0.00 | 0.08 | 0.00 | 19 | 1014.6 |
| 20260508050749 | 43 | 0 | 0.0 | 2.0 | 0.00 | 0.08 | 0.00 | 16 | 1014.5 |
| 20260508045249 | 43 | 0 | 0.0 | 1.0 | 0.00 | 0.08 | 0.00 | 18 | 1014.4 |
| 20260508043749 | 44 | 0 | 0.0 | 1.0 | 0.00 | 0.08 | 0.00 | 18 | 1014.2 |
| 20260508042249 | 44 | 0 | 0.0 | 0.0 | 0.00 | 0.08 | 0.00 | 17 | 1014.0 |
| 20260508040749 | 44 | 0 | 0.0 | 2.0 | 0.00 | 0.08 | 0.00 | 20 | 1013.9 |
| 20260508035249 | 45 | 0 | 0.0 | 0.0 | 0.00 | 0.08 | 0.08 | 19 | 1013.7 |
| 20260508033749 | 46 | 0 | 0.0 | 0.0 | 0.00 | 0.08 | 0.08 | 18 | 1013.7 |
| 20260508032249 | 46 | 151 | 2.0 | 2.0 | 0.00 | 0.08 | 0.08 | 19 | 1013.5 |
| 20260508030749 | 46 | 151 | 1.0 | 1.0 | 0.00 | 0.09 | 0.08 | 18 | 1013.8 |
| 20260508025249 | 46 | 0 | 0.0 | 0.0 | 0.00 | 0.09 | 0.08 | 24 | 1013.6 |
| 20260508023749 | 47 | 0 | 0.0 | 1.0 | 0.00 | 0.09 | 0.08 | 28 | 1013.3 |
| 20260508022249 | 48 | 0 | 0.0 | 1.0 | 0.00 | 0.09 | 0.08 | 27 | 1013.0 |
| 20260508020749 | 49 | 0 | 0.0 | 1.0 | 0.00 | 0.09 | 0.08 | 23 | 1012.9 |
| 20260508015249 | 50 | 0 | 0.0 | 0.0 | 0.00 | 0.09 | 0.08 | 32 | 1012.7 |
| 20260508013749 | 51 | 0 | 0.0 | 1.0 | 0.00 | 0.09 | 0.08 | 32 | 1012.4 |
| 20260508012249 | 52 | 0 | 0.0 | 1.0 | 0.00 | 0.10 | 0.08 | 35 | 1012.2 |
| 20260508010749 | 54 | 0 | 0.0 | 1.0 | 0.00 | 0.10 | 0.08 | 39 | 1011.9 |
| 20260508005249 | 55 | 0 | 0.0 | 1.0 | 0.00 | 0.10 | 0.08 | 39 | 1011.8 |
| 20260508003749 | 56 | 143 | 1.0 | 2.0 | 0.00 | 0.10 | 0.08 | 39 | 1011.6 |
| 20260508002249 | 57 | 143 | 3.0 | 3.0 | 0.00 | 0.10 | 0.08 | 40 | 1011.3 |
| 20260508000749 | 58 | 142 | 3.0 | 3.0 | 0.00 | 0.10 | 0.08 | 41 | 1011.2 |
| 20260507235249 | 59 | 167 | 4.0 | 5.0 | 0.00 | 0.15 | 0.08 | 45 | 1011.2 |
| 20260507233749 | 60 | 148 | 2.0 | 8.0 | 0.00 | 0.16 | 0.08 | 51 | 1011.1 |
| 20260507232249 | 60 | 94 | 2.0 | 4.0 | 0.00 | 0.17 | 0.08 | 49 | 1011.1 |
| 20260507230749 | 59 | 134 | 2.0 | 3.0 | 0.00 | 0.17 | 0.08 | 45 | 1011.2 |
| 20260507225249 | 59 | 167 | 6.0 | 8.0 | 0.00 | 0.17 | 0.08 | 48 | 1011.3 |
| 20260507223749 | 59 | 144 | 3.0 | 7.0 | 0.00 | 0.17 | 0.08 | 52 | 1011.3 |
| 20260507222249 | 60 | 145 | 2.0 | 6.0 | 0.00 | 0.17 | 0.08 | 55 | 1011.3 |
| 20260507220749 | 60 | 140 | 3.0 | 7.0 | 0.00 | 0.17 | 0.08 | 59 | 1011.1 |
| 20260507215249 | 61 | 176 | 3.0 | 4.0 | 0.00 | 0.17 | 0.08 | 66 | 1010.9 |